FLOCK 4V-8 (46288 NORAD) Tracking and Keplerian Element Data

This shows tracking and keplerian element data for the satellite.

Feedback or suggestion? Click here.




ElementValue
Catalog46288
NameFLOCK 4V-8
Epoch Orbit316
Epoch Day268.81445706
Epoch Year2020
RAAN341.5419
Inclination97.5176
Eccentricity0.0001118
Argument of Perigee300.9149
Mean Anonmoly59.197
Mean Motion15.09953896
Decay Rate5.86E-06
L11 46288U 20061S 20268.81445706 .00000586 00000-0 39996-4 0 9999
L22 46288 97.5176 341.5419 0001118 300.9149 59.1970 15.09953896 3165

Live tracking and technical data element details for FLOCK 4V-8 (NORAD 46288). FLOCK 4V-8 can be tracked NOW for your location showing map with azimuth and elevation plus other details from your city location.

Track the satellite on the map from your city or location and see movement details for azimuth, elevation, latitude, longitude, range, height, and movement on the map or in text.







IsCatalogInMostPopularTable: catalog: 46288, numindb: 2
Update: records affected: 1



GetName: 46288 FLOCK 4V-8

Hit Count: updated at: Sat, 26 Sep 2020 15:41:25 GMT